Date String (YYYY-MM-DD hh:mm:ss) UTC,Instrument flags,absolute air pressure of the measurement (hPa),sample flow rate (lpm),inlet stack bypass flow (lpm),air temperature of the measurement (°C),ambient temperature measured by the external sensor (°C),aerosol sample conditioner tube jacket temperature (°C),OPC LED temperature (°C),internal box temperature (°C),relative humidity of the measurement (%),span deviation,mass concentration of particles derived from Lorenz-Mie calculation of OPC scattering (μg/m³),mass concentration of particles derived from Lorenz-Mie calculation of OPC scattering (μg/m³),mass concentration of particles derived from Lorenz-Mie calculation of OPC scattering (μg/m³)
DateTimeUTC,F1_M11,P_M11,Q1_M11,Q2_M11,T1_M11,T2_M11,T3_M11,T4_M11,T5_M11,U1_M11,ZSPAN_M11,X0_M11,X2_M11,X1_M11
2024-02-02 08:00:00,SystemResetWarning,0821.1,5.00,000.00,023.8,023.1,000.0,032.2,025.5,11.3,0000.0,0010.40,0003.50,0002.88
2024-02-02 08:01:00,SystemResetWarning,0821.1,5.01,000.00,023.8,023.1,000.0,032.2,025.5,11.2,0000.0,0010.33,0003.48,0002.87
2024-02-02 08:02:00,SystemResetWarning,0821.1,5.01,000.00,023.8,023.1,000.0,032.2,025.5,11.3,0000.0,0010.34,0003.50,0002.87
2024-02-02 08:03:00,SystemResetWarning,0821.0,5.01,000.00,023.8,023.1,000.0,032.2,025.5,11.3,0000.0,0009.90,0003.48,0002.87
2024-02-02 08:04:00,SystemResetWarning,0820.9,5.00,000.00,023.8,023.1,000.0,032.2,025.5,11.2,0000.0,0009.33,0003.45,0002.88
2024-02-02 08:05:00,SystemResetWarning,0821.1,4.99,000.00,023.8,023.1,000.0,032.2,025.5,11.1,0000.0,0008.98,0003.44,0002.87
2024-02-02 08:06:00,SystemResetWarning,0821.0,4.99,000.00,023.8,023.1,000.0,032.2,025.5,11.1,0000.0,0008.82,0003.45,0002.90
2024-02-02 08:07:00,SystemResetWarning,0821.2,5.00,000.00,023.8,023.1,000.0,032.2,025.5,11.3,0000.0,0009.52,0003.51,0002.93
2024-02-02 08:08:00,SystemResetWarning,0821.1,5.00,000.00,023.8,023.1,000.0,032.2,025.6,11.4,0000.0,0010.04,0003.56,0002.95
2024-02-02 08:09:00,SystemResetWarning,0820.9,5.01,000.00,023.8,023.1,000.0,032.2,025.6,11.4,0000.0,0010.20,0003.58,0002.95
2024-02-02 08:10:00,SystemResetWarning,0821.2,5.01,000.00,023.8,023.1,000.0,032.2,025.6,11.3,0000.0,0010.51,0003.61,0002.95
2024-02-02 08:11:00,SystemResetWarning,0821.0,5.00,000.00,023.8,023.1,000.0,032.2,025.6,11.3,0000.0,0011.54,0003.62,0002.97
2024-02-02 08:12:00,SystemResetWarning,0821.0,4.99,000.00,023.8,023.1,000.0,032.2,025.5,11.3,0000.0,0012.13,0003.63,0003.01
2024-02-02 08:13:00,SystemResetWarning,0821.0,5.00,000.00,023.8,023.1,000.0,032.2,025.5,11.3,0000.0,0011.97,0003.61,0003.04
2024-02-02 08:14:00,SystemResetWarning,0820.9,5.00,000.00,023.8,023.1,000.0,032.2,025.5,11.3,0000.0,0012.22,0003.64,0003.06
2024-02-02 08:15:00,SystemResetWarning,0820.9,5.00,000.00,023.8,023.1,000.0,032.2,025.6,11.4,0000.0,0012.02,0003.67,0003.09
2024-02-02 08:16:00,SystemResetWarning,0821.1,5.00,000.00,023.8,023.1,000.0,032.2,025.6,11.4,0000.0,0011.94,0003.70,0003.10
2024-02-02 08:17:00,SystemResetWarning,0820.9,5.00,000.00,023.8,023.1,000.0,032.2,025.6,11.4,0000.0,0012.26,0003.70,0003.09
2024-02-02 08:18:00,SystemResetWarning,0820.9,5.00,000.00,023.8,023.1,000.0,032.2,025.6,11.4,0000.0,0012.10,0003.73,0003.06
2024-02-02 08:19:00,SystemResetWarning,0821.1,5.00,000.00,023.8,023.1,000.0,032.2,025.5,11.4,0000.0,0011.55,0003.74,0003.00
2024-02-02 08:20:00,SystemResetWarning,0821.1,5.00,000.00,023.8,023.1,000.0,032.2,025.6,11.4,0000.0,0011.32,0003.71,0002.95
2024-02-02 08:21:00,SystemResetWarning,0821.2,5.00,000.00,023.8,023.1,000.0,032.2,025.5,11.4,0000.0,0010.77,0003.69,0002.91
2024-02-02 08:22:00,SystemResetWarning,0820.9,5.00,000.00,023.8,023.1,000.0,032.2,025.6,11.4,0000.0,0010.82,0003.69,0002.86
2024-02-02 08:23:00,SystemResetWarning,0820.9,5.00,000.00,023.8,023.1,000.0,032.2,025.6,11.3,0000.0,0011.87,0003.68,0002.79
2024-02-02 08:24:00,SystemResetWarning,0820.9,5.00,000.00,023.8,023.0,000.0,032.2,025.6,11.3,0000.0,0012.69,0003.65,0002.71
2024-02-02 08:25:00,SystemResetWarning,0820.9,4.99,000.00,023.8,023.0,000.0,032.2,025.5,11.4,0000.0,0014.21,0003.62,0002.65
2024-02-02 08:26:00,SystemResetWarning,0820.9,5.00,000.00,023.8,023.0,000.0,032.2,025.5,11.4,0000.0,0014.19,0003.57,0002.58
2024-02-02 08:27:00,SystemResetWarning,0820.9,5.00,000.00,023.8,023.0,000.0,032.2,025.5,11.4,0000.0,0014.70,0003.55,0002.52
2024-02-02 08:28:00,SystemResetWarning,0820.8,5.00,000.00,023.8,023.0,000.0,032.2,025.5,11.4,0000.0,0014.69,0003.55,0002.49
2024-02-02 08:29:00,SystemResetWarning,0820.8,5.01,000.00,023.8,023.0,000.0,032.2,025.5,11.4,0000.0,0014.58,0003.47,0002.45
2024-02-02 08:30:00,SystemResetWarning,0820.9,5.00,000.00,023.8,023.0,000.0,032.2,025.5,11.4,0000.0,0014.97,0003.40,0002.43
2024-02-02 08:31:00,SystemResetWarning,0820.8,5.00,000.00,023.8,023.0,000.0,032.2,025.5,11.4,0000.0,0015.81,0003.40,0002.43
2024-02-02 08:32:00,SystemResetWarning,0820.9,5.00,000.00,023.8,023.0,000.0,032.2,025.5,11.4,0000.0,0016.23,0003.38,0002.43
2024-02-02 08:33:00,SystemResetWarning,0820.9,5.00,000.00,023.8,023.0,000.0,032.2,025.5,11.4,0000.0,0016.03,0003.37,0002.43
2024-02-02 08:34:00,SystemResetWarning,0820.8,5.00,000.00,023.8,023.0,000.0,032.2,025.5,11.4,0000.0,0014.78,0003.40,0002.43
2024-02-02 08:35:00,SystemResetWarning,0820.8,5.00,000.00,023.8,023.0,000.0,032.2,025.5,11.4,0000.0,0015.06,0003.47,0002.43
2024-02-02 08:36:00,SystemResetWarning,0820.8,4.99,000.00,023.8,023.0,000.0,032.2,025.5,11.4,0000.0,0014.99,0003.52,0002.42
2024-02-02 08:37:00,SystemResetWarning,0820.8,5.00,000.00,023.8,023.0,000.0,032.2,025.5,11.4,0000.0,0015.41,0003.56,0002.42
2024-02-02 08:38:00,SystemResetWarning,0820.8,5.00,000.00,023.8,023.0,000.0,032.2,025.5,11.4,0000.0,0015.49,0003.62,0002.42
2024-02-02 08:39:00,SystemResetWarning,0820.8,5.00,000.00,023.8,023.0,000.0,032.2,025.5,11.4,0000.0,0016.44,0003.61,0002.42
2024-02-02 08:40:00,SystemResetWarning,0820.8,5.00,000.00,023.7,023.0,000.0,032.2,025.5,11.4,0000.0,0016.28,0003.62,0002.44
2024-02-02 08:41:00,SystemResetWarning,0820.8,5.00,000.00,023.7,023.0,000.0,032.1,025.4,11.4,0000.0,0016.66,0003.70,0002.46
2024-02-02 08:42:00,SystemResetWarning,0820.8,5.00,000.00,023.7,023.0,000.0,032.1,025.4,11.4,0000.0,0017.16,0003.70,0002.45
2024-02-02 08:43:00,SystemResetWarning,0820.8,5.00,000.00,023.7,023.0,000.0,032.1,025.4,11.4,0000.0,0017.93,0003.70,0002.46
2024-02-02 08:44:00,SystemResetWarning,0820.9,5.00,000.00,023.7,023.0,000.0,032.1,025.4,11.4,0000.0,0017.52,0003.70,0002.47
2024-02-02 08:45:00,SystemResetWarning,0820.9,5.00,000.00,023.7,023.0,000.0,032.1,025.4,11.4,0000.0,0017.09,0003.68,0002.51
2024-02-02 08:46:00,SystemResetWarning,0820.8,5.00,000.00,023.7,023.0,000.0,032.1,025.4,11.4,0000.0,0016.59,0003.66,0002.56
2024-02-02 08:47:00,SystemResetWarning,0820.8,5.00,000.00,023.7,023.0,000.0,032.1,025.4,11.3,0000.0,0016.04,0003.65,0002.59
2024-02-02 08:48:00,SystemResetWarning,0820.8,5.01,000.00,023.7,023.0,000.0,032.1,025.4,11.4,0000.0,0014.93,0003.64,0002.65
2024-02-02 08:49:00,SystemResetWarning,0820.8,5.01,000.00,023.7,023.0,000.0,032.1,025.4,11.3,0000.0,0014.68,0003.63,0002.72
2024-02-02 08:50:00,SystemResetWarning,0820.8,5.01,000.00,023.7,023.0,000.0,032.1,025.4,11.3,0000.0,0014.58,0003.63,0002.77
2024-02-02 08:51:00,SystemResetWarning,0820.8,5.00,000.00,023.7,023.0,000.0,032.1,025.4,11.4,0000.0,0014.90,0003.66,0002.83
2024-02-02 08:52:00,SystemResetWarning,0820.8,4.99,000.00,023.7,022.9,000.0,032.1,025.4,11.4,0000.0,0013.92,0003.62,0002.87
2024-02-02 08:53:00,SystemResetWarning,0820.8,4.99,000.00,023.7,022.9,000.0,032.1,025.4,11.4,0000.0,0013.49,0003.64,0002.92
2024-02-02 08:54:00,SystemResetWarning,0820.8,5.00,000.00,023.7,022.9,000.0,032.1,025.3,11.4,0000.0,0013.50,0003.67,0002.97
2024-02-02 08:55:00,SystemResetWarning,0820.8,5.01,000.00,023.7,022.9,000.0,032.1,025.3,11.4,0000.0,0014.04,0003.70,0003.01
2024-02-02 08:56:00,SystemResetWarning,0820.7,5.00,000.00,023.7,022.9,000.0,032.1,025.3,11.4,0000.0,0014.79,0003.76,0003.03
2024-02-02 08:57:00,SystemResetWarning,0820.7,5.00,000.00,023.7,022.9,000.0,032.1,025.3,11.4,0000.0,0014.59,0003.75,0003.04
2024-02-02 08:58:00,SystemResetWarning,0820.7,5.01,000.00,023.7,022.9,000.0,032.0,025.3,11.4,0000.0,0014.36,0003.78,0003.08
2024-02-02 08:59:00,SystemResetWarning,0820.7,4.98,000.00,023.6,022.9,000.0,032.0,025.3,11.3,0000.0,0014.37,0003.82,0003.10
